DELTA 1 DEB, 21466

Orbit data source: Space-Track

DELTA 1 DEB, 21466 is space debris in SSO originally from a launch on Thu, 12 Jun 1975 UTC launched from the Air Force Western Test Range (AFWTR). Debris objects in space refer to the collection of defunct objects orbiting the Earth. Examples of debris include non-operational satellites, rocket bodies, and fragments generated from explosions, collisions, or faulty payload assembly.

Loading next visibility...
Identifier
21466, 1975-052FA
Orbit
SSO
Country
Flag of USUS
Related business
Manufacturer
Unknown
Mission
Spacecraft
Bus & Motor
Unknown
Mass
Unknown
Launch date (UTC)
1975-06-12 (50 years ago)
Launch vehicle
Unknown
Launch site
Air Force Western Test Range (AFWTR)
Object type
Payload
Rocket body
Debris
Shape & HBR
Unknown shape, 0.1 m
Radar Cross Section
Small (<0.1 m²)

Expand to show TLE details & history
Last TLE update: 6 hours ago

TLE from 6 hours ago
0 DELTA 1 DEB
1 21466U 75052FA  25295.45948014  .00000205  00000-0  56436-3 0  9990
2 21466  99.6525 114.1206 0135507 328.0766  59.2830 13.22085910660533
Epoch: 2025-10-22T11:01Z
TLE epoch observation values (Epoch: 2025-10-22T11:01:39.084Z)
Latitude
28.30611°
Longitude
-87.65386°
Altitude
1,128.847 km
Speed
7.315 km/s
True Right ascension
07h 15m 34s
True Declination
28° 10' 12"
Sunlit
Object was in daylight at epoch
Visualization orbit readout
Latitude
Unknown
Longitude
Unknown
Altitude
Unknown
Speed
Unknown
Apparent Right ascension
Unknown
Apparent Declination
Unknown
Sunlit
N/A
Visualization observer readout
Local Sidereal Time
12:12:40
Azimuth
Unknown
Elevation
Unknown
Doppler factor
Unknown
Orbital elements
Apogee altitude
1,276.437 km
Perigee altitude
1,071.761 km
Semi-major axis
7,552.236 km
Eccentricity
0.01355
Inclination
99.6525°
RAAN
114.1206°
Arg. of periapsis
328.0766°
True anomaly
60.62946°
Mean anomaly
59.283°
Eccentric anomaly
59.95508°
Mean motion
3.30697 °/min
Orbital period
108.86 mins
BSTAR
0.00056436
Loading maneuver chart data...
Computing Atmospheric mass density...

Documentation

Showing up to 5 results
|